Year,Month,Day,Hour,Minute,Value (Times are PST for temperature in C)
2022,04,27,00,00,4.10
2022,04,27,00,01,4.10
2022,04,27,00,02,4.10
2022,04,27,00,03,4.10
2022,04,27,00,04,4.10
2022,04,27,00,05,4.10
2022,04,27,00,06,4.10
2022,04,27,00,07,4.10
2022,04,27,00,08,4.10
2022,04,27,00,09,4.10
2022,04,27,00,10,4.10
2022,04,27,00,11,4.10
2022,04,27,00,12,4.10
2022,04,27,00,13,4.10
2022,04,27,00,14,4.00
2022,04,27,00,15,4.00
2022,04,27,00,16,4.00
2022,04,27,00,17,4.00
2022,04,27,00,18,4.00
2022,04,27,00,19,4.00
2022,04,27,00,20,4.00
2022,04,27,00,21,4.00
2022,04,27,00,22,4.00
2022,04,27,00,23,4.00
2022,04,27,00,24,3.90
2022,04,27,00,25,3.90
2022,04,27,00,26,3.90
2022,04,27,00,27,3.90
2022,04,27,00,28,3.90
2022,04,27,00,29,3.90
2022,04,27,00,30,3.90
2022,04,27,00,31,3.90
2022,04,27,00,32,3.90
2022,04,27,00,33,3.90
2022,04,27,00,34,4.00
2022,04,27,00,35,4.00
2022,04,27,00,36,4.00
2022,04,27,00,37,4.00
2022,04,27,00,38,4.00
2022,04,27,00,39,4.00
2022,04,27,00,40,4.00
2022,04,27,00,41,4.00
2022,04,27,00,42,4.00
2022,04,27,00,43,4.00
2022,04,27,00,44,4.00
2022,04,27,00,45,4.00
2022,04,27,00,46,4.00
2022,04,27,00,47,4.00
2022,04,27,00,48,4.00
2022,04,27,00,49,4.00
2022,04,27,00,50,4.00
2022,04,27,00,51,4.00
2022,04,27,00,52,4.00
2022,04,27,00,53,4.00
2022,04,27,00,54,3.90
2022,04,27,00,55,3.90
2022,04,27,00,56,3.90
2022,04,27,00,57,3.90
2022,04,27,00,58,3.90
2022,04,27,00,59,3.90
2022,04,27,01,00,3.90
2022,04,27,01,01,3.90
2022,04,27,01,02,3.90
2022,04,27,01,03,3.90
2022,04,27,01,04,3.90
2022,04,27,01,05,3.90
2022,04,27,01,06,3.90
2022,04,27,01,07,3.90
2022,04,27,01,08,3.90
2022,04,27,01,09,3.90
2022,04,27,01,10,3.90
2022,04,27,01,11,3.90
2022,04,27,01,12,3.90
2022,04,27,01,13,3.80
2022,04,27,01,14,3.80
2022,04,27,01,15,3.80
2022,04,27,01,16,3.80
2022,04,27,01,17,3.80
2022,04,27,01,18,3.80
2022,04,27,01,19,3.80
2022,04,27,01,20,3.80
2022,04,27,01,21,3.80
2022,04,27,01,22,3.80
2022,04,27,01,23,3.80
2022,04,27,01,24,3.80
2022,04,27,01,25,3.80
2022,04,27,01,26,3.80
2022,04,27,01,27,3.70
2022,04,27,01,28,3.80
2022,04,27,01,29,3.80
2022,04,27,01,30,3.70
2022,04,27,01,31,3.70
2022,04,27,01,32,3.70
2022,04,27,01,33,3.80
2022,04,27,01,34,3.80
2022,04,27,01,35,3.80
2022,04,27,01,36,3.80
2022,04,27,01,37,3.80
2022,04,27,01,38,3.80
2022,04,27,01,39,3.80
2022,04,27,01,40,3.80
2022,04,27,01,41,3.70
2022,04,27,01,42,3.70
2022,04,27,01,43,3.70
2022,04,27,01,44,3.70
2022,04,27,01,45,3.70
2022,04,27,01,46,3.70
2022,04,27,01,47,3.70
2022,04,27,01,48,3.70
2022,04,27,01,49,3.70
2022,04,27,01,50,3.70
2022,04,27,01,51,3.70
2022,04,27,01,52,3.70
2022,04,27,01,53,3.70
2022,04,27,01,54,3.70
2022,04,27,01,55,3.70
2022,04,27,01,56,3.70
2022,04,27,01,57,3.70
2022,04,27,01,58,3.70
2022,04,27,01,59,3.70
2022,04,27,02,00,3.70
2022,04,27,02,01,3.70
2022,04,27,02,02,3.70
2022,04,27,02,03,3.70
2022,04,27,02,04,3.70
2022,04,27,02,05,3.80
2022,04,27,02,06,3.70
2022,04,27,02,07,3.70
2022,04,27,02,08,3.70
2022,04,27,02,09,3.80
2022,04,27,02,10,3.80
2022,04,27,02,11,3.70
2022,04,27,02,12,3.70
2022,04,27,02,13,3.80
2022,04,27,02,14,3.80
2022,04,27,02,15,3.80
2022,04,27,02,16,3.80
2022,04,27,02,17,3.80
2022,04,27,02,18,3.80
2022,04,27,02,19,3.70
2022,04,27,02,20,3.70
2022,04,27,02,21,3.70
2022,04,27,02,22,3.70
2022,04,27,02,23,3.70
2022,04,27,02,24,3.70
2022,04,27,02,25,3.70
2022,04,27,02,26,3.70
2022,04,27,02,27,3.70
2022,04,27,02,28,3.70
2022,04,27,02,29,3.70
2022,04,27,02,30,3.70
2022,04,27,02,31,3.70
2022,04,27,02,32,3.70
2022,04,27,02,33,3.70
2022,04,27,02,34,3.70
2022,04,27,02,35,3.70
2022,04,27,02,36,3.70
2022,04,27,02,37,3.70
2022,04,27,02,38,3.70
2022,04,27,02,39,3.70
2022,04,27,02,40,3.70
2022,04,27,02,41,3.70
2022,04,27,02,42,3.70
2022,04,27,02,43,3.70
2022,04,27,02,44,3.70
2022,04,27,02,45,3.70
2022,04,27,02,46,3.70
2022,04,27,02,47,3.70
2022,04,27,02,48,3.60
2022,04,27,02,49,3.60
2022,04,27,02,50,3.60
2022,04,27,02,51,3.50
2022,04,27,02,52,3.50
2022,04,27,02,53,3.40
2022,04,27,02,54,3.40
2022,04,27,02,55,3.40
2022,04,27,02,56,3.30
2022,04,27,02,57,3.30
2022,04,27,02,58,3.20
2022,04,27,02,59,3.20
2022,04,27,03,00,3.20
2022,04,27,03,01,3.10
2022,04,27,03,02,3.10
2022,04,27,03,03,3.00
2022,04,27,03,04,3.00
2022,04,27,03,05,3.00
2022,04,27,03,06,2.90
2022,04,27,03,07,2.90
2022,04,27,03,08,2.90
2022,04,27,03,09,2.90
2022,04,27,03,10,2.80
2022,04,27,03,11,2.80
2022,04,27,03,12,2.80
2022,04,27,03,13,2.80
2022,04,27,03,14,2.80
2022,04,27,03,15,2.80
2022,04,27,03,16,2.80
2022,04,27,03,17,2.70
2022,04,27,03,18,2.70
2022,04,27,03,19,2.80
2022,04,27,03,20,2.80
2022,04,27,03,21,2.80
2022,04,27,03,22,2.80
2022,04,27,03,23,2.80
2022,04,27,03,24,2.80
2022,04,27,03,25,2.80
2022,04,27,03,26,2.80
2022,04,27,03,27,2.80
2022,04,27,03,28,2.70
2022,04,27,03,29,2.70
2022,04,27,03,30,2.70
2022,04,27,03,31,2.70
2022,04,27,03,32,2.60
2022,04,27,03,33,2.60
2022,04,27,03,34,2.60
2022,04,27,03,35,2.60
2022,04,27,03,36,2.50
2022,04,27,03,37,2.50
2022,04,27,03,38,2.40
2022,04,27,03,39,2.40
2022,04,27,03,40,2.40
2022,04,27,03,41,2.40
2022,04,27,03,42,2.30
2022,04,27,03,43,2.30
2022,04,27,03,44,2.30
2022,04,27,03,45,2.30
2022,04,27,03,46,2.30
2022,04,27,03,47,2.20
2022,04,27,03,48,2.20
2022,04,27,03,49,2.20
2022,04,27,03,50,2.20
2022,04,27,03,51,2.20
2022,04,27,03,52,2.20
2022,04,27,03,53,2.20
2022,04,27,03,54,2.10
2022,04,27,03,55,2.10
2022,04,27,03,56,2.10
2022,04,27,03,57,2.10
2022,04,27,03,58,2.10
2022,04,27,03,59,2.10
2022,04,27,04,00,2.10
2022,04,27,04,01,2.10
2022,04,27,04,02,2.10
2022,04,27,04,03,2.00
2022,04,27,04,04,2.00
2022,04,27,04,05,2.00
2022,04,27,04,06,2.00
2022,04,27,04,07,2.00
2022,04,27,04,08,2.00
2022,04,27,04,09,2.00
2022,04,27,04,10,2.00
2022,04,27,04,11,1.90
2022,04,27,04,12,1.90
2022,04,27,04,13,1.90
2022,04,27,04,14,1.90
2022,04,27,04,15,1.90
2022,04,27,04,16,1.90
2022,04,27,04,17,1.90
2022,04,27,04,18,1.90
2022,04,27,04,19,1.80
2022,04,27,04,20,1.80
2022,04,27,04,21,1.80
2022,04,27,04,22,1.80
2022,04,27,04,23,1.80
2022,04,27,04,24,1.80
2022,04,27,04,25,1.80
2022,04,27,04,26,1.80
2022,04,27,04,27,1.80
2022,04,27,04,28,1.70
2022,04,27,04,29,1.70
2022,04,27,04,30,1.80
2022,04,27,04,31,1.70
2022,04,27,04,32,1.70
2022,04,27,04,33,1.70
2022,04,27,04,34,1.70
2022,04,27,04,35,1.70
2022,04,27,04,36,1.70
2022,04,27,04,37,1.70
2022,04,27,04,38,1.70
2022,04,27,04,39,1.70
2022,04,27,04,40,1.70
2022,04,27,04,41,1.70
2022,04,27,04,42,1.70
2022,04,27,04,43,1.70
2022,04,27,04,44,1.60
2022,04,27,04,45,1.60
2022,04,27,04,46,1.60
2022,04,27,04,47,1.60
2022,04,27,04,48,1.60
2022,04,27,04,49,1.60
2022,04,27,04,50,1.50
2022,04,27,04,51,1.50
2022,04,27,04,52,1.50
2022,04,27,04,53,1.50
2022,04,27,04,54,1.50
2022,04,27,04,55,1.50
2022,04,27,04,56,1.50
2022,04,27,04,57,1.50
2022,04,27,04,58,1.50
2022,04,27,04,59,1.40
2022,04,27,05,00,1.40
2022,04,27,05,01,1.40
2022,04,27,05,02,1.40
2022,04,27,05,03,1.40
2022,04,27,05,04,1.40
2022,04,27,05,05,1.40
2022,04,27,05,06,1.40
2022,04,27,05,07,1.40
2022,04,27,05,08,1.40
2022,04,27,05,09,1.40
2022,04,27,05,10,1.40
2022,04,27,05,11,1.40
2022,04,27,05,12,1.40
2022,04,27,05,13,1.40
2022,04,27,05,14,1.40
2022,04,27,05,15,1.40
2022,04,27,05,16,1.40
2022,04,27,05,17,1.40
2022,04,27,05,18,1.40
2022,04,27,05,19,1.40
2022,04,27,05,20,1.40
2022,04,27,05,21,1.40
2022,04,27,05,22,1.40
2022,04,27,05,23,1.40
2022,04,27,05,24,1.30
2022,04,27,05,25,1.30
2022,04,27,05,26,1.30
2022,04,27,05,27,1.30
2022,04,27,05,28,1.30
2022,04,27,05,29,1.30
2022,04,27,05,30,1.30
2022,04,27,05,31,1.30
2022,04,27,05,32,1.30
2022,04,27,05,33,1.30
2022,04,27,05,34,1.30
2022,04,27,05,35,1.30
2022,04,27,05,36,1.30
2022,04,27,05,37,1.30
2022,04,27,05,38,1.20
2022,04,27,05,39,1.20
2022,04,27,05,40,1.20
2022,04,27,05,41,1.20
2022,04,27,05,42,1.20
2022,04,27,05,43,1.20
2022,04,27,05,44,1.20
2022,04,27,05,45,1.20
2022,04,27,05,46,1.20
2022,04,27,05,47,1.20
2022,04,27,05,48,1.20
2022,04,27,05,49,1.20
2022,04,27,05,50,1.20
2022,04,27,05,51,1.20
2022,04,27,05,52,1.20
2022,04,27,05,53,1.20
2022,04,27,05,54,1.10
2022,04,27,05,55,1.10
2022,04,27,05,56,1.10
2022,04,27,05,57,1.10
2022,04,27,05,58,1.10
2022,04,27,05,59,1.10
2022,04,27,06,00,1.10
2022,04,27,06,01,1.10
2022,04,27,06,02,1.10
2022,04,27,06,03,1.10
2022,04,27,06,04,1.10
2022,04,27,06,05,1.10
2022,04,27,06,06,1.10
2022,04,27,06,07,1.10
2022,04,27,06,08,1.10
2022,04,27,06,09,1.10
2022,04,27,06,10,1.10
2022,04,27,06,11,1.10
2022,04,27,06,12,1.10
2022,04,27,06,13,1.10
2022,04,27,06,14,1.10
2022,04,27,06,15,1.10
2022,04,27,06,16,1.10
2022,04,27,06,17,1.10
2022,04,27,06,18,1.10
2022,04,27,06,19,1.10
2022,04,27,06,20,1.10
2022,04,27,06,21,1.10
2022,04,27,06,22,1.10
2022,04,27,06,23,1.10
2022,04,27,06,24,1.10
2022,04,27,06,25,1.10
2022,04,27,06,26,1.10
2022,04,27,06,27,1.10
2022,04,27,06,28,1.10
2022,04,27,06,29,1.20
2022,04,27,06,30,1.20
2022,04,27,06,31,1.20
2022,04,27,06,32,1.20
2022,04,27,06,33,1.20
2022,04,27,06,34,1.20
2022,04,27,06,35,1.20
2022,04,27,06,36,1.20
2022,04,27,06,37,1.30
2022,04,27,06,38,1.30
2022,04,27,06,39,1.30
2022,04,27,06,40,1.30
2022,04,27,06,41,1.40
2022,04,27,06,42,1.40
2022,04,27,06,43,1.40
2022,04,27,06,44,1.40
2022,04,27,06,45,1.40
2022,04,27,06,46,1.40
2022,04,27,06,47,1.40
2022,04,27,06,48,1.40
2022,04,27,06,49,1.40
2022,04,27,06,50,1.40
2022,04,27,06,51,1.40
2022,04,27,06,52,1.50
2022,04,27,06,53,1.50
2022,04,27,06,54,1.50
2022,04,27,06,55,1.50
2022,04,27,06,56,1.50
2022,04,27,06,57,1.60
2022,04,27,06,58,1.60
2022,04,27,06,59,1.60
2022,04,27,07,00,1.60
2022,04,27,07,01,1.60
2022,04,27,07,02,1.60
2022,04,27,07,03,1.60
2022,04,27,07,04,1.70
2022,04,27,07,05,1.70
2022,04,27,07,06,1.70
2022,04,27,07,07,1.80
2022,04,27,07,08,1.80
2022,04,27,07,09,1.90
2022,04,27,07,10,1.90
2022,04,27,07,11,2.00
2022,04,27,07,12,2.10
2022,04,27,07,13,2.20
2022,04,27,07,14,2.30
2022,04,27,07,15,2.40
2022,04,27,07,16,2.50
2022,04,27,07,17,2.60
2022,04,27,07,18,2.70
2022,04,27,07,19,2.80
2022,04,27,07,20,2.90
2022,04,27,07,21,3.00
2022,04,27,07,22,3.10
2022,04,27,07,23,3.20
2022,04,27,07,24,3.30
2022,04,27,07,25,3.40
2022,04,27,07,26,3.40
2022,04,27,07,27,3.50
2022,04,27,07,28,3.60
2022,04,27,07,29,3.70
2022,04,27,07,30,3.70
2022,04,27,07,31,3.80
2022,04,27,07,32,3.90
2022,04,27,07,33,4.10
2022,04,27,07,34,4.20
2022,04,27,07,35,4.30
2022,04,27,07,36,4.50
2022,04,27,07,37,4.60
2022,04,27,07,38,4.70
2022,04,27,07,39,4.90
2022,04,27,07,40,5.00
2022,04,27,07,41,5.10
2022,04,27,07,42,5.20
2022,04,27,07,43,5.30
2022,04,27,07,44,5.40
2022,04,27,07,45,5.50
2022,04,27,07,46,5.60
2022,04,27,07,47,5.70
2022,04,27,07,48,5.80
2022,04,27,07,49,5.90
2022,04,27,07,50,5.90
2022,04,27,07,51,6.00
2022,04,27,07,52,6.10
2022,04,27,07,53,6.20
2022,04,27,07,54,6.40
2022,04,27,07,55,6.50
2022,04,27,07,56,6.60
2022,04,27,07,57,6.70
2022,04,27,07,58,6.80
2022,04,27,07,59,6.90
2022,04,27,08,00,7.10
2022,04,27,08,01,7.20
2022,04,27,08,02,7.30
2022,04,27,08,03,7.40
2022,04,27,08,04,7.60
2022,04,27,08,05,7.70
2022,04,27,08,06,7.80
2022,04,27,08,07,7.80
2022,04,27,08,08,7.90
2022,04,27,08,09,7.90
2022,04,27,08,10,7.90
2022,04,27,08,11,8.00
2022,04,27,08,12,8.00
2022,04,27,08,13,8.10
2022,04,27,08,14,8.20
2022,04,27,08,15,8.30
2022,04,27,08,16,8.30
2022,04,27,08,17,8.40
2022,04,27,08,18,8.50
2022,04,27,08,19,8.60
2022,04,27,08,20,8.70
2022,04,27,08,21,8.80
2022,04,27,08,22,8.90
2022,04,27,08,23,8.90
2022,04,27,08,24,9.00
2022,04,27,08,25,9.10
2022,04,27,08,26,9.20
2022,04,27,08,27,9.30
2022,04,27,08,28,9.50
2022,04,27,08,29,9.50
2022,04,27,08,30,9.60
2022,04,27,08,31,9.70
2022,04,27,08,32,9.80
2022,04,27,08,33,9.80
2022,04,27,08,34,9.90
2022,04,27,08,35,9.90
2022,04,27,08,36,9.90
2022,04,27,08,37,9.90
2022,04,27,08,38,9.80
2022,04,27,08,39,9.80
2022,04,27,08,40,9.70
2022,04,27,08,41,9.70
2022,04,27,08,42,9.60
2022,04,27,08,43,9.60
2022,04,27,08,44,9.50
2022,04,27,08,45,9.50
2022,04,27,08,46,9.50
2022,04,27,08,47,9.50
2022,04,27,08,48,9.50
2022,04,27,08,49,9.60
2022,04,27,08,50,9.60
2022,04,27,08,51,9.70
2022,04,27,08,52,9.70
2022,04,27,08,53,9.80
2022,04,27,08,54,9.80
2022,04,27,08,55,9.80
2022,04,27,08,56,9.80
2022,04,27,08,57,9.70
2022,04,27,08,58,9.60
2022,04,27,08,59,9.60
2022,04,27,09,00,9.60
2022,04,27,09,01,9.60
2022,04,27,09,02,9.60
2022,04,27,09,03,9.60
2022,04,27,09,04,9.70
2022,04,27,09,05,9.70
2022,04,27,09,06,9.70
2022,04,27,09,07,9.80
2022,04,27,09,08,9.80
2022,04,27,09,09,9.80
2022,04,27,09,10,9.90
2022,04,27,09,11,9.90
2022,04,27,09,12,10.00
2022,04,27,09,13,10.00
2022,04,27,09,14,10.00
2022,04,27,09,15,10.00
2022,04,27,09,16,9.90
2022,04,27,09,17,9.80
2022,04,27,09,18,9.70
2022,04,27,09,19,9.70
2022,04,27,09,20,9.60
2022,04,27,09,21,9.50
2022,04,27,09,22,9.50
2022,04,27,09,23,9.40
2022,04,27,09,24,9.30
2022,04,27,09,25,9.30
2022,04,27,09,26,9.20
2022,04,27,09,27,9.20
2022,04,27,09,28,9.20
2022,04,27,09,29,9.10
2022,04,27,09,30,9.10
2022,04,27,09,31,9.10
2022,04,27,09,32,9.00
2022,04,27,09,33,9.00
2022,04,27,09,34,8.90
2022,04,27,09,35,8.90
2022,04,27,09,36,8.90
2022,04,27,09,37,8.90
2022,04,27,09,38,8.90
2022,04,27,09,39,8.80
2022,04,27,09,40,8.80
2022,04,27,09,41,8.80
2022,04,27,09,42,8.80
2022,04,27,09,43,8.70
2022,04,27,09,44,8.70
2022,04,27,09,45,8.70
2022,04,27,09,46,8.70
2022,04,27,09,47,8.60
2022,04,27,09,48,8.60
2022,04,27,09,49,8.60
2022,04,27,09,50,8.60
2022,04,27,09,51,8.60
2022,04,27,09,52,8.60
2022,04,27,09,53,8.60
2022,04,27,09,54,8.60
2022,04,27,09,55,8.60
2022,04,27,09,56,8.60
2022,04,27,09,57,8.60
2022,04,27,09,58,8.60
2022,04,27,09,59,8.60
2022,04,27,10,00,8.60
2022,04,27,10,01,8.60
2022,04,27,10,02,8.60
2022,04,27,10,03,8.60
2022,04,27,10,04,8.60
2022,04,27,10,05,8.70
2022,04,27,10,06,8.70
2022,04,27,10,07,8.70
2022,04,27,10,08,8.70
2022,04,27,10,09,8.60
2022,04,27,10,10,8.70
2022,04,27,10,11,8.70
2022,04,27,10,12,8.70
2022,04,27,10,13,8.70
2022,04,27,10,14,8.70
2022,04,27,10,15,8.70
2022,04,27,10,16,8.70
2022,04,27,10,17,8.70
2022,04,27,10,18,8.70
2022,04,27,10,19,8.70
2022,04,27,10,20,8.70
2022,04,27,10,21,8.70
2022,04,27,10,22,8.70
2022,04,27,10,23,8.70
2022,04,27,10,24,8.70
2022,04,27,10,25,8.70
2022,04,27,10,26,8.70
2022,04,27,10,27,8.70
2022,04,27,10,28,8.70
2022,04,27,10,29,8.70
2022,04,27,10,30,8.70
2022,04,27,10,31,8.80
2022,04,27,10,32,8.80
2022,04,27,10,33,8.80
2022,04,27,10,34,8.90
2022,04,27,10,35,8.90
2022,04,27,10,36,9.00
2022,04,27,10,37,9.20
2022,04,27,10,38,9.30
2022,04,27,10,39,9.30
2022,04,27,10,40,9.40
2022,04,27,10,41,9.50
2022,04,27,10,42,9.60
2022,04,27,10,43,9.70
2022,04,27,10,44,9.80
2022,04,27,10,45,9.90
2022,04,27,10,46,10.10
2022,04,27,10,47,10.20
2022,04,27,10,48,10.30
2022,04,27,10,49,10.40
2022,04,27,10,50,10.50
2022,04,27,10,51,10.70
2022,04,27,10,52,10.70
2022,04,27,10,53,10.80
2022,04,27,10,54,10.80
2022,04,27,10,55,10.80
2022,04,27,10,56,10.90
2022,04,27,10,57,10.80
2022,04,27,10,58,10.90
2022,04,27,10,59,10.80
2022,04,27,11,00,10.80
2022,04,27,11,01,10.80
2022,04,27,11,02,10.80
2022,04,27,11,03,10.70
2022,04,27,11,04,10.70
2022,04,27,11,05,10.70
2022,04,27,11,06,10.70
2022,04,27,11,07,10.70
2022,04,27,11,08,10.70
2022,04,27,11,09,10.60
2022,04,27,11,10,10.60
2022,04,27,11,11,10.50
2022,04,27,11,12,10.40
2022,04,27,11,13,10.30
2022,04,27,11,14,10.20
2022,04,27,11,15,10.10
2022,04,27,11,16,10.10
2022,04,27,11,17,10.00
2022,04,27,11,18,10.00
2022,04,27,11,19,9.90
2022,04,27,11,20,9.90
2022,04,27,11,21,9.90
2022,04,27,11,22,9.80
2022,04,27,11,23,9.80
2022,04,27,11,24,9.80
2022,04,27,11,25,9.70
2022,04,27,11,26,9.80
2022,04,27,11,27,9.80
2022,04,27,11,28,9.80
2022,04,27,11,29,9.80
2022,04,27,11,30,9.80
2022,04,27,11,31,9.80
2022,04,27,11,32,9.80
2022,04,27,11,33,9.90
2022,04,27,11,34,9.80
2022,04,27,11,35,9.80
2022,04,27,11,36,9.80
2022,04,27,11,37,9.80
2022,04,27,11,38,9.90
2022,04,27,11,39,9.90
2022,04,27,11,40,9.90
2022,04,27,11,41,9.90
2022,04,27,11,42,9.90
2022,04,27,11,43,9.90
2022,04,27,11,44,10.00
2022,04,27,11,45,10.00
2022,04,27,11,46,10.00
2022,04,27,11,47,10.00
2022,04,27,11,48,10.00
2022,04,27,11,49,10.00
2022,04,27,11,50,10.00
2022,04,27,11,51,10.10
2022,04,27,11,52,10.10
2022,04,27,11,53,10.20
2022,04,27,11,54,10.20
2022,04,27,11,55,10.30
2022,04,27,11,56,10.30
2022,04,27,11,57,10.30
2022,04,27,11,58,10.30
2022,04,27,11,59,10.30
2022,04,27,12,00,10.20
2022,04,27,12,01,10.20
2022,04,27,12,02,10.10
2022,04,27,12,03,10.10
2022,04,27,12,04,10.00
2022,04,27,12,05,10.00
2022,04,27,12,06,9.90
2022,04,27,12,07,9.80
2022,04,27,12,08,9.80
2022,04,27,12,09,9.70
2022,04,27,12,10,9.60
2022,04,27,12,11,9.60
2022,04,27,12,12,9.60
2022,04,27,12,13,9.50
2022,04,27,12,14,9.50
2022,04,27,12,15,9.50
2022,04,27,12,16,9.40
2022,04,27,12,17,9.40
2022,04,27,12,18,9.40
2022,04,27,12,19,9.40
2022,04,27,12,20,9.40
2022,04,27,12,21,9.40
2022,04,27,12,22,9.30
2022,04,27,12,23,9.30
2022,04,27,12,24,9.30
2022,04,27,12,25,9.30
2022,04,27,12,26,9.30
2022,04,27,12,27,9.30
2022,04,27,12,28,9.30
2022,04,27,12,29,9.40
2022,04,27,12,30,9.40
2022,04,27,12,31,9.50
2022,04,27,12,32,9.60
2022,04,27,12,33,9.70
2022,04,27,12,34,9.80
2022,04,27,12,35,9.90
2022,04,27,12,36,10.00
2022,04,27,12,37,10.00
2022,04,27,12,38,10.10
2022,04,27,12,39,10.20
2022,04,27,12,40,10.30
2022,04,27,12,41,10.40
2022,04,27,12,42,10.60
2022,04,27,12,43,10.70
2022,04,27,12,44,10.80
2022,04,27,12,45,11.00
2022,04,27,12,46,11.10
2022,04,27,12,47,11.20
2022,04,27,12,48,11.40
2022,04,27,12,49,11.50
2022,04,27,12,50,11.60
2022,04,27,12,51,11.70
2022,04,27,12,52,11.70
2022,04,27,12,53,11.80
2022,04,27,12,54,11.80
2022,04,27,12,55,11.90
2022,04,27,12,56,11.80
2022,04,27,12,57,11.80
2022,04,27,12,58,11.70
2022,04,27,12,59,11.60
2022,04,27,13,00,11.50
2022,04,27,13,01,11.30
2022,04,27,13,02,11.20
2022,04,27,13,03,11.10
2022,04,27,13,04,11.00
2022,04,27,13,05,11.00
2022,04,27,13,06,10.90
2022,04,27,13,07,10.80
2022,04,27,13,08,10.70
2022,04,27,13,09,10.60
2022,04,27,13,10,10.60
2022,04,27,13,11,10.60
2022,04,27,13,12,10.60
2022,04,27,13,13,10.60
2022,04,27,13,14,10.60
2022,04,27,13,15,10.60
2022,04,27,13,16,10.60
2022,04,27,13,17,10.60
2022,04,27,13,18,10.60
2022,04,27,13,19,10.70
2022,04,27,13,20,10.70
2022,04,27,13,21,10.80
2022,04,27,13,22,10.80
2022,04,27,13,23,10.90
2022,04,27,13,24,10.90
2022,04,27,13,25,10.90
2022,04,27,13,26,10.90
2022,04,27,13,27,11.00
2022,04,27,13,28,11.10
2022,04,27,13,29,11.20
2022,04,27,13,30,11.30
2022,04,27,13,31,11.40
2022,04,27,13,32,11.50
2022,04,27,13,33,11.60
2022,04,27,13,34,11.70
2022,04,27,13,35,11.60
2022,04,27,13,36,11.50
2022,04,27,13,37,11.50
2022,04,27,13,38,11.40
2022,04,27,13,39,11.30
2022,04,27,13,40,11.20
2022,04,27,13,41,11.20
2022,04,27,13,42,11.20
2022,04,27,13,43,11.20
2022,04,27,13,44,11.20
2022,04,27,13,45,11.20
2022,04,27,13,46,11.20
2022,04,27,13,47,11.30
2022,04,27,13,48,11.30
2022,04,27,13,49,11.40
2022,04,27,13,50,11.40
2022,04,27,13,51,11.50
2022,04,27,13,52,11.60
2022,04,27,13,53,11.60
2022,04,27,13,54,11.60
2022,04,27,13,55,11.60
2022,04,27,13,56,11.50
2022,04,27,13,57,11.40
2022,04,27,13,58,11.30
2022,04,27,13,59,11.20
2022,04,27,14,00,11.00
2022,04,27,14,01,10.90
2022,04,27,14,02,10.80
2022,04,27,14,03,10.70
2022,04,27,14,04,10.60
2022,04,27,14,05,10.50
2022,04,27,14,06,10.40
2022,04,27,14,07,10.40
2022,04,27,14,08,10.30
2022,04,27,14,09,10.30
2022,04,27,14,10,10.30
2022,04,27,14,11,10.20
2022,04,27,14,12,10.20
2022,04,27,14,13,10.30
2022,04,27,14,14,10.30
2022,04,27,14,15,10.30
2022,04,27,14,16,10.40
2022,04,27,14,17,10.50
2022,04,27,14,18,10.60
2022,04,27,14,19,10.80
2022,04,27,14,20,10.80
2022,04,27,14,21,10.90
2022,04,27,14,22,11.00
2022,04,27,14,23,11.10
2022,04,27,14,24,11.10
2022,04,27,14,25,11.20
2022,04,27,14,26,11.20
2022,04,27,14,27,11.20
2022,04,27,14,28,11.30
2022,04,27,14,29,11.30
2022,04,27,14,30,11.40
2022,04,27,14,31,11.50
2022,04,27,14,32,11.60
2022,04,27,14,33,11.70
2022,04,27,14,34,11.80
2022,04,27,14,35,11.90
2022,04,27,14,36,12.00
2022,04,27,14,37,12.00
2022,04,27,14,38,12.10
2022,04,27,14,39,12.10
2022,04,27,14,40,12.10
2022,04,27,14,41,12.10
2022,04,27,14,42,12.10
2022,04,27,14,43,12.00
2022,04,27,14,44,12.00
2022,04,27,14,45,12.00
2022,04,27,14,46,11.90
2022,04,27,14,47,11.90
2022,04,27,14,48,11.90
2022,04,27,14,49,11.80
2022,04,27,14,50,11.80
2022,04,27,14,51,11.90
2022,04,27,14,52,11.90
2022,04,27,14,53,11.90
2022,04,27,14,54,11.90
2022,04,27,14,55,12.00
2022,04,27,14,56,12.00
2022,04,27,14,57,12.10
2022,04,27,14,58,12.10
2022,04,27,14,59,12.20
2022,04,27,15,00,12.30
2022,04,27,15,01,12.30
2022,04,27,15,02,12.30
2022,04,27,15,03,12.40
2022,04,27,15,04,12.40
2022,04,27,15,05,12.50
2022,04,27,15,06,12.50
2022,04,27,15,07,12.60
2022,04,27,15,08,12.60
2022,04,27,15,09,12.60
2022,04,27,15,10,12.60
2022,04,27,15,11,12.60
2022,04,27,15,12,12.60
2022,04,27,15,13,12.60
2022,04,27,15,14,12.60
2022,04,27,15,15,12.60
2022,04,27,15,16,12.60
2022,04,27,15,17,12.60
2022,04,27,15,18,12.60
2022,04,27,15,19,12.60
2022,04,27,15,20,12.60
2022,04,27,15,21,12.60
2022,04,27,15,22,12.60
2022,04,27,15,23,12.60
2022,04,27,15,24,12.70
2022,04,27,15,25,12.70
2022,04,27,15,26,12.70
2022,04,27,15,27,12.60
2022,04,27,15,28,12.50
2022,04,27,15,29,12.40
2022,04,27,15,30,12.30
2022,04,27,15,31,12.10
2022,04,27,15,32,12.00
2022,04,27,15,33,11.90
2022,04,27,15,34,11.80
2022,04,27,15,35,11.70
2022,04,27,15,36,11.70
2022,04,27,15,37,11.60
2022,04,27,15,38,11.50
2022,04,27,15,39,11.50
2022,04,27,15,40,11.40
2022,04,27,15,41,11.40
2022,04,27,15,42,11.30
2022,04,27,15,43,11.30
2022,04,27,15,44,11.30
2022,04,27,15,45,11.20
2022,04,27,15,46,11.20
2022,04,27,15,47,11.20
2022,04,27,15,48,11.10
2022,04,27,15,49,11.10
2022,04,27,15,50,11.10
2022,04,27,15,51,11.10
2022,04,27,15,52,11.10
2022,04,27,15,53,11.00
2022,04,27,15,54,11.00
2022,04,27,15,55,10.90
2022,04,27,15,56,10.90
2022,04,27,15,57,10.80
2022,04,27,15,58,10.80
2022,04,27,15,59,10.70
2022,04,27,16,00,10.70
2022,04,27,16,01,10.70
2022,04,27,16,02,10.60
2022,04,27,16,03,10.60
2022,04,27,16,04,10.60
2022,04,27,16,05,10.60
2022,04,27,16,06,10.60
2022,04,27,16,07,10.60
2022,04,27,16,08,10.70
2022,04,27,16,09,10.70
2022,04,27,16,10,10.70
2022,04,27,16,11,10.70
2022,04,27,16,12,10.70
2022,04,27,16,13,10.70
2022,04,27,16,14,10.70
2022,04,27,16,15,10.70
2022,04,27,16,16,10.70
2022,04,27,16,17,10.70
2022,04,27,16,18,10.80
2022,04,27,16,19,10.80
2022,04,27,16,20,10.80
2022,04,27,16,21,10.80
2022,04,27,16,22,10.80
2022,04,27,16,23,10.80
2022,04,27,16,24,10.80
2022,04,27,16,25,10.80
2022,04,27,16,26,10.80
2022,04,27,16,27,10.80
2022,04,27,16,28,10.80
2022,04,27,16,29,10.80
2022,04,27,16,30,10.80
2022,04,27,16,31,10.80
2022,04,27,16,32,10.80
2022,04,27,16,33,10.80
2022,04,27,16,34,10.80
2022,04,27,16,35,10.80
2022,04,27,16,36,10.80
2022,04,27,16,37,10.80
2022,04,27,16,38,10.90
2022,04,27,16,39,10.90
2022,04,27,16,40,11.00
2022,04,27,16,41,11.00
2022,04,27,16,42,11.00
2022,04,27,16,43,11.00
2022,04,27,16,44,11.10
2022,04,27,16,45,11.10
2022,04,27,16,46,11.10
2022,04,27,16,47,11.10
2022,04,27,16,48,11.10
2022,04,27,16,49,11.10
2022,04,27,16,50,11.20
2022,04,27,16,51,11.10
2022,04,27,16,52,11.10
2022,04,27,16,53,11.10
2022,04,27,16,54,11.10
2022,04,27,16,55,11.00
2022,04,27,16,56,11.00
2022,04,27,16,57,11.10
2022,04,27,16,58,11.10
2022,04,27,16,59,11.10
2022,04,27,17,00,11.10
2022,04,27,17,01,11.10
2022,04,27,17,02,11.10
2022,04,27,17,03,11.20
2022,04,27,17,04,11.20
2022,04,27,17,05,11.20
2022,04,27,17,06,11.10
2022,04,27,17,07,11.10
2022,04,27,17,08,11.10
2022,04,27,17,09,11.10
2022,04,27,17,10,11.10
2022,04,27,17,11,11.10
2022,04,27,17,12,11.10
2022,04,27,17,13,11.20
2022,04,27,17,14,11.10
2022,04,27,17,15,11.10
2022,04,27,17,16,11.20
2022,04,27,17,17,11.10
2022,04,27,17,18,11.10
2022,04,27,17,19,11.10
2022,04,27,17,20,11.10
2022,04,27,17,21,11.00
2022,04,27,17,22,10.90
2022,04,27,17,23,10.80
2022,04,27,17,24,10.80
2022,04,27,17,25,10.70
2022,04,27,17,26,10.70
2022,04,27,17,27,10.70
2022,04,27,17,28,10.60
2022,04,27,17,29,10.50
2022,04,27,17,30,10.50
2022,04,27,17,31,10.40
2022,04,27,17,32,10.40
2022,04,27,17,33,10.40
2022,04,27,17,34,10.40
2022,04,27,17,35,10.40
2022,04,27,17,36,10.40
2022,04,27,17,37,10.30
2022,04,27,17,38,10.30
2022,04,27,17,39,10.30
2022,04,27,17,40,10.30
2022,04,27,17,41,10.30
2022,04,27,17,42,10.30
2022,04,27,17,43,10.30
2022,04,27,17,44,10.30
2022,04,27,17,45,10.40
2022,04,27,17,46,10.40
2022,04,27,17,47,10.40
2022,04,27,17,48,10.40
2022,04,27,17,49,10.50